Location: Bidart
(43.4376°N, 1.5913°W)
Time: 07:49:17
(UTC+00:00)

Tiangong - Pass Details

Date: 30 January 2026
Orbit: 386 x 392 km, 41.5° (Epoch: 11 February)

Event Time Altitude Azimuth Distance (km) Brightness Sun altitude
Exits shadow 06:08:50 11° 222° (SW) 1,363 0.3 -13.9°
Maximum altitude 06:09:23 11° 212° (SSW) 1,343 0.4 -13.8°
Drops below altitude 10° 06:10:32 10° 191° (S) 1,426 0.7 -13.6°
Sets 06:13:45 0° 156° (SSE) 2,278 2.3 -13.1°
